User: anonymous   Login
Location: Desert Center
(33.7130°N, 115.4010°W)
Time: 08:03:01
(UTC-08:00)
Language:

USA 215 - Orbit

View from above orbital plane
View from above orbital plane
View from above satellite
View from above satellite

Ground track
Ground track

The orbit data is extracted from the following two-line orbital elements,

1 37162U 10046A   15054.70320609 0.00000050  00000-0  89477-4 0    09
2 37162 122.9945  74.6533 0007247 185.6251 174.3748 13.41466649    07
Epoch (UTC): 23 February 2015 16:52:37
Eccentricity: 0.0007247
inclination: 122.9945°
perigee height: 1098 km
apogee height: 1109 km
right ascension of ascending node: 74.6533°
argument of perigee: 185.6251°
revolutions per day: 13.41466649
mean anomaly at epoch: 174.3748°
orbit number at epoch: 0

The dashed part of the orbit path shows where the satellite is in the earth's shadow,  

DLR